Weather History for Kirksville, MO

Change the Weather History Date:

Saturday, November 17, 2012

  Actual Average Record
Temperature  
Mean Temperature 45 °F 40 °F  
Max Temperature 59 °F 50 °F 76 °F (1941)
Min Temperature 31 °F 30 °F 1 °F (1959)
Degree Days  
Heating Degree Days 20 25  
Month to date heating degree days 359 363  
Since 1 July heating degree days 938 852  
Cooling Degree Days 0 0  
Month to date cooling degree days 2 0  
Year to date cooling degree days 1321 939  
Moisture  
Dew Point 31 °F    
Average Humidity 65    
Maximum Humidity 89    
Minimum Humidity 40    
Precipitation  
Precipitation 0.00 in 0.08 in 3.25 in (1928)
Month to date precipitation 1.68 1.75  
Year to date precipitation 26.37 36.59  
Sea Level Pressure  
Sea Level Pressure 30.42 in    
Wind  
Wind Speed 8 mph (SSE)    
Max Wind Speed 16 mph    
Max Gust Speed 21 mph    
Visibility 9 miles    
Events      
T = Trace of Precipitation, MM = Missing Value Source: NWS Daily Summary

Daily Weather History Graph

Daily Weather History Graph

Search for Another Location

Airport:

Trip Planner

Search our weather history database for the weather conditions in past years. The results will help you decide how hot, cold, wet, or windy it might be!

Date:

Astronomy

Nov. 17, 2012 Rise Set
Actual Time 6:58 AM CST 4:51 PM CST
Civil Twilight 6:29 AM CST 5:20 PM CST
Nautical Twilight 5:56 AM CST 5:53 PM CST
Astronomical Twilight 5:24 AM CST 6:26 PM CST
Moon 10:43 AM CST (11/17) 9:02 PM CST (11/17)
Length of Visible Light 10h 51m
Length of Day
9h 53m
Waxing Crescent, 20% of the Moon is Illuminated
Nov 17
Waxing Crescent
Nov 20
First Quarter
Nov 28
Full
Dec 6
Last Quarter
Dec 13
New

Hourly Weather History & Observations

Time (CST) Temp. Windchill Dew Point Humidity Pressure Visibility Wind Dir Wind Speed Gust Speed Precip Events Conditions
12:55 AM 36.0 °F 29.0 °F 32.0 °F 86% 30.43 in 8.0 mi SSE 9.2 mph - N/A   Clear
1:55 AM 36.0 °F 32.1 °F 30.9 °F 82% 30.44 in 8.0 mi SSE 4.6 mph - N/A   Clear
2:55 AM 33.1 °F 27.7 °F 28.9 °F 85% 30.45 in 9.0 mi SSE 5.8 mph - N/A   Clear
3:55 AM 34.0 °F 29.8 °F 30.0 °F 85% 30.45 in 9.0 mi SSE 4.6 mph - N/A   Clear
4:55 AM 33.1 °F 28.7 °F 28.9 °F 85% 30.46 in 9.0 mi SSE 4.6 mph - N/A   Clear
5:55 AM 32.0 °F 27.5 °F 28.0 °F 85% 30.45 in 8.0 mi SSE 4.6 mph - N/A   Clear
6:55 AM 32.0 °F 26.4 °F 28.0 °F 85% 30.47 in 8.0 mi SE 5.8 mph - N/A   Clear
7:55 AM 36.0 °F 33.3 °F 30.0 °F 79% 30.49 in 7.0 mi SSW 3.5 mph - N/A   Clear
8:55 AM 43.0 °F 38.8 °F 34.0 °F 71% 30.48 in 10.0 mi South 6.9 mph - N/A   Clear
9:55 AM 50.0 °F - 33.1 °F 52% 30.48 in 10.0 mi South 10.4 mph - N/A   Clear
10:55 AM 52.0 °F - 35.1 °F 53% 30.48 in 10.0 mi SSE 8.1 mph - N/A   Clear
11:55 AM 55.9 °F - 32.0 °F 40% 30.44 in 10.0 mi South 13.8 mph - N/A   Clear
12:55 PM 57.9 °F - 34.0 °F 41% 30.42 in 10.0 mi South 9.2 mph - N/A   Clear
1:55 PM 57.9 °F - 33.1 °F 39% 30.40 in 10.0 mi SSE 11.5 mph - N/A   Clear
2:55 PM 55.9 °F - 34.0 °F 44% 30.39 in 10.0 mi SE 12.7 mph - N/A   Clear
3:55 PM 53.1 °F - 34.0 °F 48% 30.38 in 10.0 mi SE 10.4 mph - N/A   Clear
4:55 PM 46.9 °F - 33.1 °F 59% 30.37 in 10.0 mi SE 4.6 mph - N/A   Clear
5:55 PM 44.1 °F 40.1 °F 30.9 °F 60% 30.38 in 10.0 mi ESE 6.9 mph - N/A   Clear
6:55 PM 42.1 °F 37.7 °F 30.0 °F 62% 30.38 in 10.0 mi SE 6.9 mph - N/A   Clear
7:55 PM 42.1 °F 37.1 °F 30.9 °F 65% 30.38 in 10.0 mi SE 8.1 mph - N/A   Clear
8:55 PM 39.9 °F 34.5 °F 30.9 °F 70% 30.38 in 10.0 mi SE 8.1 mph - N/A   Clear
9:55 PM 41.0 °F 34.7 °F 30.0 °F 65% 30.37 in 10.0 mi SE 10.4 mph - N/A   Clear
10:55 PM 42.1 °F 36.1 °F 30.0 °F 62% 30.36 in 10.0 mi SE 10.4 mph - N/A   Clear
11:55 PM 41.0 °F 34.7 °F 30.9 °F 67% 30.36 in 10.0 mi SE 10.4 mph - N/A   Clear